Airport Information

KMFR - Rogue Valley Intl Medford Airport

KMFR 172153Z 00000KT 10SM BKN047 OVC055 11/03 A3005 RMK AO2 SLP179 T01110028


  • General Information

  • Coordinates: N 42°22'27"/ W 122°52'24"
  • Location: N/A
  • Surveyed Elevation: 1335 MSL

Operations

Flow Name Active Runways Conditions

Green background denotes normal operations.


Common Frequencies

Callsign Frequency Position Name

More at the Document Center


Charts

Under Construction